Location: Haliburton Scout Reserve
(45.0900°N, 78.3200°W)
Time: 16:43:43
(UTC-04:00)

Cosmos 1315 - Visible Passes

Search period start: 18 April 2014 00:00
Search period end: 28 April 2014 00:00
Orbit: 426 x 433 km, 81.1° (Epoch: 17 April)

Date Brightness Start Highest point End Pass type
(mag) Time Alt. Az. Time Alt. Az. Time Alt. Az.
18 Apr 5.6 03:08:24 17° N 03:08:24 17° N 03:09:19 10° N visible
19 Apr 6.1 02:26:44 13° NNE 02:26:44 13° NNE 02:27:12 10° NNE visible
20 Apr 5.6 03:18:13 14° NNW 03:18:13 14° NNW 03:18:53 10° NNW visible
21 Apr 5.9 02:36:24 15° N 02:36:24 15° N 02:37:05 10° N visible
22 Apr 6.3 01:54:30 11° NNE 01:54:30 11° NNE 01:54:39 10° NNE visible
23 Apr 5.8 02:45:44 14° NNW 02:45:44 14° NNW 02:46:20 10° N visible
24 Apr 6.0 02:03:42 14° NNE 02:03:42 14° NNE 02:04:14 10° NNE visible
25 Apr 5.9 02:54:46 10° NNW 02:54:46 10° NNW 02:54:50 10° NNW visible
26 Apr 5.9 02:12:35 14° N 02:12:35 14° N 02:13:12 10° N visible
27 Apr 6.1 01:30:19 13° NNE 01:30:19 13° NNE 01:30:47 10° NNE visible
